M I D A S
Marine Information and Data Acquisition System
Tripno 497 of the Zeeleeuw from 2003-05-15 07:18:04 to 2003-05-15 09:40:24
Back to CruiseResearch ActivitiesStationsMapUnderway DataData graphs

EquipmentUnitsComments
TimeDGPSUTC
LatitudeDGPSDM.mWGS84
LongitudeDGPSDM.mWGS84
SpeedMeteo Stationm/sRelative wind speed
DirectionMeteo StationdegRelative wind direction
TemperatureMeteo Stationdeg CelciusAir temperature
PressureMeteo StationPaAtmospheric pressure
HumidityMeteo Station%Relative humidity
Missing or incorrect values are displayed as -999
Metereological data collected by the RV Zeeleeuw from 2003-05-15 07:18:04 to 2003-05-15 09:40:24
Time Latitude Longitude Speed Direction Temperature Pressure Humidity
2003-05-15 07:19 51°13.61 2°56.06 0.9 281 11.4 102410 68
2003-05-15 07:20 51°13.64 2°55.94 1.8 248 11.3 102410 68
2003-05-15 07:21 51°13.67 2°55.82 1.8 248 11.2 102410 69
2003-05-15 07:22 51°13.68 2°55.76 1.8 248 11.2 102410 69
2003-05-15 07:23 51°13.7 2°55.77 1.8 248 11.1 102410 69
2003-05-15 07:24 51°13.68 2°55.75 1.8 248 11 102410 69
2003-05-15 07:25 51°13.7 2°55.74 1.8 248 10.9 102410 70
2003-05-15 07:26 51°13.75 2°55.69 1.8 248 10.9 102410 70
2003-05-15 07:27 51°13.84 2°55.62 1.8 248 10.8 102410 70
2003-05-15 07:28 51°13.95 2°55.54 1.8 248 10.8 102410 70
2003-05-15 07:29 51°14.09 2°55.45 1.8 248 10.7 102410 69
2003-05-15 07:30 51°14.21 2°55.31 1.8 248 10.7 102410 69
2003-05-15 07:31 51°14.32 2°55.14 1.8 248 10.6 102410 68
2003-05-15 07:32 51°14.41 2°54.92 1.8 248 10.7 102410 68
2003-05-15 07:33 51°14.5 2°54.63 1.8 248 10.8 102410 69
2003-05-15 07:34 51°14.6 2°54.35 1.8 248 10.8 102400 69
2003-05-15 07:35 51°14.71 2°54.06 1.8 248 10.7 102410 70
2003-05-15 07:36 51°14.82 2°53.78 1.8 248 10.7 102410 70
2003-05-15 07:37 51°14.92 2°53.49 1.8 248 10.7 102400 71
2003-05-15 07:38 51°15.02 2°53.19 1.8 248 10.7 102410 72
2003-05-15 07:39 51°15.11 2°52.88 1.8 248 10.7 102400 72
2003-05-15 07:40 51°15.2 2°52.57 1.8 248 10.7 102410 72
2003-05-15 07:41 51°15.29 2°52.25 1.8 248 10.7 102410 72
2003-05-15 07:42 51°15.34 2°51.92 1.8 248 10.7 102400 72
2003-05-15 07:43 51°15.31 2°51.56 1.8 248 10.6 102410 72
2003-05-15 07:44 51°15.2 2°51.25 1.8 248 10.6 102400 72
2003-05-15 07:45 51°15.06 2°50.96 1.8 248 10.7 102390 74
2003-05-15 07:46 51°14.92 2°50.67 -999 -999 -999 -999 -999
2003-05-15 07:47 51°14.77 2°50.38 -999 -999 -999 -999 -999
2003-05-15 07:48 51°14.63 2°50.1 -999 -999 -999 -999 -999
2003-05-15 07:49 51°14.48 2°49.82 -999 -999 -999 -999 -999
2003-05-15 07:50 51°14.37 2°49.6 -999 -999 -999 -999 -999
2003-05-15 07:51 51°14.32 2°49.45 -999 -999 -999 -999 -999
2003-05-15 07:52 51°14.29 2°49.34 -999 -999 -999 -999 -999
2003-05-15 07:53 51°14.29 2°49.28 -999 -999 -999 -999 -999
2003-05-15 07:54 51°14.3 2°49.21 -999 -999 -999 -999 -999
2003-05-15 07:55 51°14.33 2°49.18 -999 -999 -999 -999 -999
2003-05-15 07:56 51°14.36 2°49.21 -999 -999 -999 -999 -999
2003-05-15 07:57 51°14.39 2°49.28 -999 -999 -999 -999 -999
2003-05-15 07:58 51°14.42 2°49.35 -999 -999 -999 -999 -999
2003-05-15 07:59 51°14.43 2°49.41 -999 -999 -999 -999 -999
2003-05-15 08:00 51°14.44 2°49.46 -999 -999 -999 -999 -999
2003-05-15 08:01 51°14.46 2°49.5 -999 -999 -999 -999 -999
2003-05-15 08:02 51°14.48 2°49.55 -999 -999 -999 -999 -999
2003-05-15 08:03 51°14.51 2°49.61 -999 -999 -999 -999 -999
2003-05-15 08:04 51°14.52 2°49.68 -999 -999 -999 -999 -999
2003-05-15 08:05 51°14.54 2°49.74 -999 -999 -999 -999 -999
2003-05-15 08:06 51°14.56 2°49.8 -999 -999 -999 -999 -999
2003-05-15 08:07 51°14.58 2°49.86 -999 -999 -999 -999 -999
2003-05-15 08:08 51°14.6 2°49.91 -999 -999 -999 -999 -999
2003-05-15 08:09 51°14.61 2°49.97 -999 -999 -999 -999 -999
2003-05-15 08:10 51°14.63 2°50.03 -999 -999 -999 -999 -999
2003-05-15 08:11 51°14.65 2°50.09 -999 -999 -999 -999 -999
2003-05-15 08:12 51°14.67 2°50.14 -999 -999 -999 -999 -999
2003-05-15 08:13 51°14.69 2°50.2 -999 -999 -999 -999 -999
2003-05-15 08:14 51°14.71 2°50.25 -999 -999 -999 -999 -999
2003-05-15 08:15 51°14.74 2°50.3 -999 -999 -999 -999 -999
2003-05-15 08:16 51°14.76 2°50.35 -999 -999 -999 -999 -999
2003-05-15 08:17 51°14.79 2°50.41 -999 -999 -999 -999 -999
2003-05-15 08:18 51°14.81 2°50.47 -999 -999 -999 -999 -999
2003-05-15 08:19 51°14.84 2°50.53 -999 -999 -999 -999 -999
2003-05-15 08:20 51°14.86 2°50.59 -999 -999 -999 -999 -999
2003-05-15 08:21 51°14.89 2°50.65 -999 -999 -999 -999 -999
2003-05-15 08:22 51°14.91 2°50.71 -999 -999 -999 -999 -999
2003-05-15 08:23 51°14.94 2°50.77 -999 -999 -999 -999 -999
2003-05-15 08:24 51°14.97 2°50.83 -999 -999 -999 -999 -999
2003-05-15 08:25 51°14.98 2°50.89 -999 -999 -999 -999 -999
2003-05-15 08:26 51°14.99 2°50.95 -999 -999 -999 -999 -999
2003-05-15 08:27 51°14.99 2°51 -999 -999 -999 -999 -999
2003-05-15 08:28 51°14.99 2°51.05 -999 -999 -999 -999 -999
2003-05-15 08:29 51°14.99 2°51.08 -999 -999 -999 -999 -999
2003-05-15 08:30 51°14.98 2°51.11 -999 -999 -999 -999 -999
2003-05-15 08:31 51°14.97 2°51.13 -999 -999 -999 -999 -999
2003-05-15 08:32 51°14.95 2°51.14 -999 -999 -999 -999 -999
2003-05-15 08:33 51°14.93 2°51.14 -999 -999 -999 -999 -999
2003-05-15 08:34 51°14.91 2°51.14 -999 -999 -999 -999 -999
2003-05-15 08:35 51°14.89 2°51.14 -999 -999 -999 -999 -999
2003-05-15 08:36 51°14.84 2°51.17 -999 -999 -999 -999 -999
2003-05-15 08:37 51°14.78 2°51.28 -999 -999 -999 -999 -999
2003-05-15 08:38 51°14.73 2°51.43 -999 -999 -999 -999 -999
2003-05-15 08:39 51°14.68 2°51.57 -999 -999 -999 -999 -999
2003-05-15 08:40 51°14.61 2°51.71 -999 -999 -999 -999 -999
2003-05-15 08:41 51°14.55 2°51.85 -999 -999 -999 -999 -999
2003-05-15 08:42 51°14.51 2°51.98 -999 -999 -999 -999 -999
2003-05-15 08:43 51°14.52 2°52.05 -999 -999 -999 -999 -999
2003-05-15 08:44 51°14.52 2°52.06 -999 -999 -999 -999 -999
2003-05-15 08:45 51°14.53 2°52.07 -999 -999 -999 -999 -999
2003-05-15 08:46 51°14.53 2°52.07 -999 -999 -999 -999 -999
2003-05-15 08:47 51°14.53 2°52.07 -999 -999 -999 -999 -999
2003-05-15 08:48 51°14.53 2°52.06 -999 -999 -999 -999 -999
2003-05-15 08:49 51°14.53 2°52.06 -999 -999 -999 -999 -999
2003-05-15 08:50 51°14.53 2°52.06 -999 -999 -999 -999 -999
2003-05-15 08:51 51°14.55 2°52.09 -999 -999 -999 -999 -999
2003-05-15 08:52 51°14.59 2°52.24 -999 -999 -999 -999 -999
2003-05-15 08:53 51°14.57 2°52.47 -999 -999 -999 -999 -999
2003-05-15 08:54 51°14.54 2°52.72 -999 -999 -999 -999 -999
2003-05-15 08:55 51°14.51 2°52.96 -999 -999 -999 -999 -999
2003-05-15 08:56 51°14.46 2°53.2 -999 -999 -999 -999 -999
2003-05-15 08:57 51°14.42 2°53.38 -999 -999 -999 -999 -999
2003-05-15 08:58 51°14.35 2°53.49 -999 -999 -999 -999 -999
2003-05-15 08:59 51°14.29 2°53.58 -999 -999 -999 -999 -999
2003-05-15 09:00 51°14.26 2°53.63 -999 -999 -999 -999 -999
2003-05-15 09:01 51°14.25 2°53.62 -999 -999 -999 -999 -999
2003-05-15 09:02 51°14.25 2°53.62 -999 -999 -999 -999 -999
2003-05-15 09:03 51°14.24 2°53.62 -999 -999 -999 -999 -999
2003-05-15 09:04 51°14.23 2°53.62 -999 -999 -999 -999 -999
2003-05-15 09:05 51°14.23 2°53.62 -999 -999 -999 -999 -999
2003-05-15 09:06 51°14.23 2°53.62 -999 -999 -999 -999 -999
2003-05-15 09:07 51°14.22 2°53.63 -999 -999 -999 -999 -999
2003-05-15 09:08 51°14.22 2°53.63 -999 -999 -999 -999 -999
2003-05-15 09:09 51°14.22 2°53.64 -999 -999 -999 -999 -999
2003-05-15 09:10 51°14.22 2°53.64 -999 -999 -999 -999 -999
2003-05-15 09:11 51°14.22 2°53.65 -999 -999 -999 -999 -999
2003-05-15 09:12 51°14.22 2°53.66 -999 -999 -999 -999 -999
2003-05-15 09:13 51°14.24 2°53.7 -999 -999 -999 -999 -999
2003-05-15 09:14 51°14.28 2°53.78 -999 -999 -999 -999 -999
2003-05-15 09:15 51°14.3 2°53.85 -999 -999 -999 -999 -999
2003-05-15 09:16 51°14.32 2°53.9 -999 -999 -999 -999 -999
2003-05-15 09:17 51°14.33 2°53.93 -999 -999 -999 -999 -999
2003-05-15 09:18 51°14.34 2°53.97 -999 -999 -999 -999 -999
2003-05-15 09:19 51°14.35 2°53.99 -999 -999 -999 -999 -999
2003-05-15 09:20 51°14.35 2°54.02 -999 -999 -999 -999 -999
2003-05-15 09:21 51°14.36 2°54.06 -999 -999 -999 -999 -999
2003-05-15 09:22 51°14.4 2°54.24 -999 -999 -999 -999 -999
2003-05-15 09:23 51°14.43 2°54.52 -999 -999 -999 -999 -999
2003-05-15 09:24 51°14.42 2°54.79 -999 -999 -999 -999 -999
2003-05-15 09:25 51°14.36 2°55.05 -999 -999 -999 -999 -999
2003-05-15 09:26 51°14.27 2°55.25 -999 -999 -999 -999 -999
2003-05-15 09:27 51°14.18 2°55.37 -999 -999 -999 -999 -999
2003-05-15 09:28 51°14.1 2°55.44 -999 -999 -999 -999 -999
2003-05-15 09:29 51°14.01 2°55.5 -999 -999 -999 -999 -999
2003-05-15 09:30 51°13.93 2°55.57 -999 -999 -999 -999 -999
2003-05-15 09:31 51°13.84 2°55.63 -999 -999 -999 -999 -999
2003-05-15 09:32 51°13.76 2°55.7 -999 -999 -999 -999 -999
2003-05-15 09:33 51°13.71 2°55.78 -999 -999 -999 -999 -999
2003-05-15 09:34 51°13.68 2°55.87 -999 -999 -999 -999 -999
2003-05-15 09:35 51°13.64 2°55.95 -999 -999 -999 -999 -999
2003-05-15 09:36 51°13.61 2°56.02 -999 -999 -999 -999 -999
2003-05-15 09:37 51°13.6 2°56.08 -999 -999 -999 -999 -999
2003-05-15 09:38 51°13.6 2°56.1 -999 -999 -999 -999 -999
2003-05-15 09:39 51°13.6 2°56.1 -999 -999 -999 -999 -999
2003-05-15 09:40 51°13.6 2°56.1 -999 -999 -999 -999 -999